STARLINK-34239

Last updated on Sat Jul 19 2025 00:02:08 GMT+0000 (Coordinated Universal Time)

1 64728U 25144E 25199.58335648 -.01532574 00000+0 -13045-1 0 9993 2 64728 53.1585 192.2148 0001289 60.5503 31.5857 15.71643505 3843
UTC large
Height (km)
Speed (km/s)
/
Latitude / Longitude
Inclination (degrees)
Orbital Period (minutes)
Azimuth
Elevation
Range (km)
Doppler Factor

Next 0 passes for location: London (51.5072 / 0.1276)

Sorry there are no passes over London.